Flag Weather past 2 weeks in Mattersburg, Burgenland, Austria

Now
37 °F

Clear.


Feels Like: 33 °F
Forecast: 34 / 42 °F
Wind: 6 mph from East

Location: Eisenstadt

Current Time: Nov 24, 2014 at 2:30:47 AM

Latest Report: Nov 24, 2014 at 1:00 AM


Visibility: 6 mi

Pressure: 30.36 "Hg

Humidity: 89%

Dew point: 34 °F

Location of MattersburgLocation

Historic Weather in Mattersburg — Graph

°F

Mattersburg temperature yesterday

Maximum temperature yesterday: 46 °F (at 1:00 PM)
Minimum temperature yesterday: 36 °F (at 7:00 AM)
Average temperature yesterday: 41 °F

Past Weeks' High & Low Weather Summary

 TemperatureHumidityPressure
High65 °F (Nov 11, 1:00 PM)99% (Nov 16, 10:00 PM)30.40 "Hg (Nov 16, 10:00 PM)
Low36 °F (Nov 21, 7:00 PM)60% (Nov 19, 1:00 PM)29.68 "Hg (Nov 18, 2:00 PM)
Average49 °F86%29.99 "Hg
* Reported Nov 9 1:00 AM — Nov 24 1:00 AM, Mattersburg, Weather by CustomWeather, © 2014

Note: Actual official high and low records may vary slightly from our data, if they occured in-between our weather recording intervals... More about our weather records

Advertising

Mattersburg weather history for previous 24 hours

 ConditionsComfort  
Time TempWeatherWind HumidityBarometerVisibility
1:00 AM
Nov 24
37 °FClear.6 mph89%30.36 "Hg6 mi
12:00 AM40 °FChilly.6 mph85%30.37 "HgN/A
11:00 PM
Nov 23
41 °FQuite cool.6 mph83%30.37 "HgN/A
10:00 PM42 °FOvercast.6 mph82%30.37 "Hg5 mi
9:00 PM42 °FQuite cool.6 mph82%30.38 "HgN/A
8:00 PM43 °FQuite cool.5 mph80%30.37 "HgN/A
7:00 PM43 °FOvercast.6 mph79%30.38 "Hg5 mi
6:00 PM44 °FQuite cool.6 mph80%30.37 "HgN/A
5:00 PM44 °FQuite cool.5 mph80%30.38 "HgN/A
4:00 PM44 °FOvercast.5 mph78%30.37 "Hg5 mi
3:00 PM45 °FQuite cool.5 mph75%30.38 "HgN/A
2:00 PM45 °FCool.6 mph75%30.38 "HgN/A
1:00 PM46 °FSunny.7 mph73%30.37 "Hg12 mi
12:00 PM44 °FQuite cool.6 mph74%30.39 "HgN/A
11:00 AM44 °FQuite cool.6 mph76%30.40 "HgN/A
10:00 AM42 °FSunny.5 mph80%30.40 "Hg4 mi
9:00 AM39 °FChilly.5 mph84%30.40 "HgN/A
8:00 AM36 °FChilly.3 mph89%30.38 "HgN/A
7:00 AM36 °FFog.3 mph90%30.37 "Hg3 mi
6:00 AM37 °FOvercast.3 mph87%30.37 "Hg5 mi
5:00 AM38 °FOvercast.3 mph86%30.36 "Hg5 mi
4:00 AM39 °FOvercast.3 mph88%30.36 "Hg5 mi
3:00 AM38 °FChilly.3 mph90%30.36 "HgN/A
2:00 AM38 °FChilly.3 mph90%30.36 "HgN/A
Weather by CustomWeather, © 2014

See weather overviewHow to use our weather pages